Location: Neuvy Saint Sepulchre
(46.5953°N, 1.8122°E)
Time: 19:50:51
(UTC+01:00)

ISS - Pass Details

Date: 26 November 2021
Orbit: 417 x 422 km, 51.6° (Epoch: 06 December)

Event Time Altitude Azimuth Distance (km) Brightness Sun altitude
Rises 17:47:08 0° 250° (WSW) 2,370 2.7 -6.5°
Reaches altitude 10° 17:49:14 10° 253° (WSW) 1,507 0.8 -6.9°
Maximum altitude 17:52:37 68° 337° (NNW) 461 -3.6 -7.4°
Enters shadow 17:55:55 11° 61° (ENE) 1,480 -1.7 -7.9°
